{"data":{"norad_id":57907,"intl_designator":"2023-146S","name":"STARLINK-30482","alt_names":[],"object_type":"PAYLOAD","status":"ACTIVE","operator":null,"country":"US","launch_date":"2023-09-20","launch_site_code":"AFETR","launch_vehicle":null,"mission":null,"orbit_class":"UNKNOWN","rcs_meters":null,"size_class":null,"mass_kg":null,"dimensions":null,"purposes":["comms"],"wikipedia_slug":null,"has_3d_model":false,"image_url":null,"decayed_at":null,"tle_current":{"epoch":"2026-09-19T09:08:38.364576Z","epoch_age_seconds":231067,"freshness":"STALE","line1":"1 57907U 23146S   26262.38099959  .00000410  00000+0  24427-4 0  9991","line2":"2 57907  43.0043 300.7797 0001626 273.3903  86.6763 15.27577058165622","mean_motion":15.27577058,"eccentricity":0.0001626,"inclination_deg":43.0043,"raan_deg":300.7797,"arg_perigee_deg":273.3903,"mean_anomaly_deg":86.6763,"bstar":2.4427e-5,"rev_number":16562,"period_min":94.266930264411,"perigee_km":481.94227516854,"apogee_km":484.1735357518,"semimajor_km":6861.1949054602,"source":"CELESTRAK","updated_at":"2026-09-21T09:00:33.723561Z"}}}